{"data":{"norad_id":62927,"epoch":"2026-05-25T03:40:52.654080Z","epoch_age_seconds":61953,"freshness":"FRESH","line1":"1 62927U 25027W   26145.15338720  .00017176  00000+0  63189-3 0  9990","line2":"2 62927  43.0035  57.2827 0001546 269.1922  90.8752 15.27598717 73352","mean_motion":15.27598717,"eccentricity":0.0001546,"inclination_deg":43.0035,"raan_deg":57.2827,"arg_perigee_deg":269.1922,"mean_anomaly_deg":90.8752,"bstar":0.00063189,"rev_number":7335,"period_min":94.265593704345,"perigee_km":481.93232047459003,"apogee_km":484.05378188641,"semimajor_km":6861.1300511805,"source":"CELESTRAK","updated_at":"2026-05-25T13:38:19.823682Z"}}